カタログに戻る

CZ-2D R/B

運用中SSO
NORAD 44548·ROCKET BODY·🇨🇳 China

打ち上げ Sep 25, 2019 から Jiuquan Satellite Launch Center

Loading…

次のパス (今後24時間)

TLE

最新Source: Space-Track

元期: Sep 14, 2026, 21:03 UTC

1 44548U 19063B   26257.87723846  .00000139  00000-0  56671-4 0  9993
2 44548  98.3605 211.7821 0005988 240.4219 119.6374 14.40858408366471

AllMySatでCZ-2D R/Bをリアルタイム追跡

Download on the App Store